GW4284 Weather Reports


time (UTC)temp
F
wind
direction
speed
knots
gust
knots
rain 1hr
in
rain 24hr
in
rain mn
in
humidity
%
barometer
mb
20260503223843 86 300 1.7 1.7 0.00 0.00 0.00 39 991.1
20260503223341 86 327 6.1 7.8 0.00 0.00 0.00 39 991.0
20260503222836 86 313 5.2 6.1 0.00 0.00 0.00 39 991.3
20260503222335 86 299 4.3 5.2 0.00 0.00 0.00 36 991.3
20260503221832 86 317 4.3 5.2 0.00 0.00 0.00 35 991.2
20260503221331 86 293 5.2 6.1 0.00 0.00 0.00 42 991.4
20260503220826 86 290 2.6 4.3 0.00 0.00 0.00 37 991.4
20260503220323 86 335 3.5 4.3 0.00 0.00 0.00 41 991.6
20260503215815 86 88 0.9 0.9 0.00 0.00 0.00 43 991.4
20260503215312 86 258 1.7 1.7 0.00 0.00 0.00 35 991.8
20260503214810 86 303 1.7 1.7 0.00 0.00 0.00 40 991.7
20260503214306 86 317 0.9 0.9 0.00 0.00 0.00 39 991.8
20260503213803 86 313 2.6 2.6 0.00 0.00 0.00 39 991.9
20260503213300 85 339 0.9 1.7 0.00 0.00 0.00 41 991.7
20260503212757 85 300 2.6 4.3 0.00 0.00 0.00 40 992.0
20260503212255 86 54 1.7 1.7 0.00 0.00 0.00 38 992.0
20260503211753 87 286 2.6 2.6 0.00 0.00 0.00 45 992.0
20260503211248 86 310 2.6 4.3 0.00 0.00 0.00 42 991.7
20260503210744 86 292 1.7 1.7 0.00 0.00 0.00 43 991.9
20260503210242 87 22 0.9 0.9 0.00 0.00 0.00 36 992.0
20260503205742 86 320 0.9 1.7 0.00 0.00 0.00 40 992.0
20260503205239 86 240 1.7 1.7 0.00 0.00 0.00 45 991.9
20260503204735 86 293 1.7 2.6 0.00 0.00 0.00 38 992.0
20260503204233 85 292 0.9 0.9 0.00 0.00 0.00 44 992.1
20260503203730 84 326 2.6 2.6 0.00 0.00 0.00 38 992.1
20260503203227 85 334 3.5 4.3 0.00 0.00 0.00 41 992.2
20260503202724 85 333 4.3 6.1 0.00 0.00 0.00 42 992.4
20260503202222 84 302 1.7 1.7 0.00 0.00 0.00 42 992.6
20260503201720 84 319 4.3 7.0 0.00 0.00 0.00 44 992.4
20260503201217 84 265 0.9 0.9 0.00 0.00 0.00 43 992.5
20260503200713 85 333 3.5 6.1 0.00 0.00 0.00 43 992.8
20260503200210 86 281 0.9 0.9 0.00 0.00 0.00 50 992.4
20260503195707 84 17 0.9 0.9 0.00 0.00 0.00 42 992.7
20260503195204 84 330 3.5 4.3 0.00 0.00 0.00 46 992.8
20260503194701 84 324 2.6 2.6 0.00 0.00 0.00 44 992.9
20260503194156 84 251 0.9 0.9 0.00 0.00 0.00 47 992.8
20260503193653 85 4 0.9 0.9 0.00 0.00 0.00 54 993.0
20260503193149 84 186 0.9 0.9 0.00 0.00 0.00 54 992.7
20260503192645 83 223 0.9 0.9 0.00 0.00 0.00 49 993.0
20260503192140 84 214 0.9 0.9 0.00 0.00 0.00 48 993.1
20260503191637 84 267 0.9 1.7 0.00 0.00 0.00 51 993.1
20260503191134 84 11 0.9 0.9 0.00 0.00 0.00 50 993.2
20260503190631 82 196 3.5 4.3 0.00 0.00 0.00 53 993.2
20260503190128 82 305 3.5 4.3 0.00 0.00 0.00 56 993.2
20260503185625 81 331 3.5 4.3 0.00 0.00 0.00 54 993.2
20260503185120 81 342 3.5 5.2 0.00 0.00 0.00 52 993.1
20260503184615 81 296 2.6 2.6 0.00 0.00 0.00 52 993.6
20260503184112 82 320 3.5 5.2 0.00 0.00 0.00 55 993.6
20260503183609 82 354 1.7 1.7 0.00 0.00 0.00 58 993.5
20260503183106 81 2 2.6 2.6 0.00 0.00 0.00 52 993.4
20260503182604 82 284 1.7 1.7 0.00 0.00 0.00 56 993.5
20260503182102 81 62 0.9 1.7 0.00 0.00 0.00 50 993.4
20260503181559 81 9 0.9 1.7 0.00 0.00 0.00 50 993.6
20260503181055 80 331 0.0 0.0 0.00 0.00 0.00 51 993.6
20260503180552 81 30 0.9 0.9 0.00 0.00 0.00 52 993.8
20260503180050 79 332 1.7 1.7 0.00 0.00 0.00 53 993.8
20260503175547 79 4 0.9 0.9 0.00 0.00 0.00 53 993.7
20260503175044 80 280 0.9 0.9 0.00 0.00 0.00 58 993.9
20260503174541 79 334 0.0 0.0 0.00 0.00 0.00 55 993.9
20260503174037 78 331 0.0 0.9 0.00 0.00 0.00 55 994.0
20260503173532 77 4 2.6 2.6 0.00 0.00 0.00 53 993.9
20260503173029 78 331 0.9 0.9 0.00 0.00 0.00 54 993.9
20260503172527 78 170 0.0 0.9 0.00 0.00 0.00 55 994.0
20260503172024 76 6 0.9 0.9 0.00 0.00 0.00 51 994.1
20260503171520 75 29 1.7 1.7 0.00 0.00 0.00 54 994.2
20260503171018 75 341 0.9 0.9 0.00 0.00 0.00 56 994.1
20260503170514 75 2 2.6 2.6 0.00 0.00 0.00 52 994.1
20260503150906 66 58 1.7 1.7 0.00 0.00 0.00 62 994.6
20260503150403 66 42 0.0 0.0 0.00 0.00 0.00 65 994.4
20260503131256 58 28 1.7 1.7 0.00 0.00 0.00 77 993.7
20260503130753 58 50 0.9 0.9 0.00 0.00 0.00 77 994.0
20260503130251 58 36 2.6 4.3 0.00 0.00 0.00 78 993.8
20260503120217 56 356 1.7 1.7 0.00 0.00 0.00 89 994.5
20260503110644 57 49 0.9 0.9 0.00 0.00 0.00 85 994.5
20260503110141 57 76 0.0 0.0 0.00 0.00 0.00 85 994.4
20260503100108 59 170 0.9 0.9 0.00 0.00 0.00 83 994.5
20260503081457 60 103 0.0 0.0 0.00 0.00 0.00 88 994.7
20260503080954 60 109 0.9 0.9 0.00 0.00 0.00 88 994.7
20260503080450 60 87 0.9 1.7 0.00 0.00 0.00 88 994.7
20260503072927 61 259 0.0 0.0 0.00 0.00 0.00 86 994.7
20260503072425 61 267 0.0 0.9 0.00 0.00 0.00 85 994.6
20260503071921 61 321 1.7 1.7 0.00 0.00 0.00 86 994.8
20260503071419 61 23 0.0 0.0 0.00 0.00 0.00 85 994.7
20260503070915 61 63 0.0 0.0 0.00 0.00 0.00 84 994.6
20260503070412 62 27 0.9 1.7 0.00 0.00 0.00 84 994.6
20260503060338 60 2 0.9 0.9 0.00 0.00 0.00 86 995.1
20260503054825 60 2 0.9 0.9 0.00 0.00 0.00 86 995.1
20260503054321 60 2 0.0 0.0 0.00 0.00 0.00 86 995.2
20260503053819 60 2 0.0 0.9 0.00 0.00 0.00 85 995.3
20260503053317 60 2 0.9 0.9 0.00 0.00 0.00 87 995.3
20260503052813 60 2 0.9 0.9 0.00 0.00 0.00 87 995.1
20260503052311 59 2 0.0 0.9 0.00 0.00 0.00 87 995.0
20260503051806 60 2 0.9 1.7 0.00 0.00 0.00 87 995.1
20260503051303 60 14 0.9 0.9 0.00 0.00 0.00 85 995.2
20260503050800 61 101 0.0 0.0 0.00 0.00 0.00 84 995.4
20260503050759 61 101 0.0 0.0 0.00 0.00 0.00 84 995.4
20260503050256 60 101 0.0 0.0 0.00 0.00 0.00 85 995.3
20260503045754 60 101 0.0 0.0 0.00 0.00 0.00 85 995.1
20260503045251 61 101 0.0 0.0 0.00 0.00 0.00 84 995.0
20260503044747 61 104 0.0 0.9 0.00 0.00 0.00 84 995.2
20260503044244 62 104 0.0 0.0 0.00 0.00 0.00 83 995.3
20260503043742 62 104 0.9 0.9 0.00 0.00 0.00 83 995.1
20260503043239 62 111 0.0 0.0 0.00 0.00 0.00 81 995.2
20260503042734 63 111 0.0 0.0 0.00 0.00 0.00 80 995.3
20260503042226 63 137 0.0 0.0 0.00 0.00 0.00 80 995.2
20260503041722 64 169 0.0 0.0 0.00 0.00 0.00 79 995.0
20260503041220 64 91 1.7 2.6 0.00 0.00 0.00 78 995.2
20260503040717 65 125 0.9 0.9 0.00 0.00 0.00 77 995.0
20260503040214 65 151 1.7 1.7 0.00 0.00 0.00 75 995.0
20260503035711 66 182 2.6 2.6 0.00 0.00 0.00 74 995.0
20260503035208 66 213 2.6 4.3 0.00 0.00 0.00 74 994.7
20260503034706 66 189 2.6 2.6 0.00 0.00 0.00 73 994.7
20260503034203 67 214 3.5 4.3 0.00 0.00 0.00 73 994.6
20260503033700 67 196 3.5 4.3 0.00 0.00 0.00 72 994.5
20260503033158 68 179 1.7 1.7 0.00 0.00 0.00 72 994.6
20260503032656 68 176 2.6 4.3 0.00 0.00 0.00 71 994.4
20260503032154 69 176 2.6 2.6 0.00 0.00 0.00 70 994.3
20260503031651 69 134 0.9 1.7 0.00 0.00 0.00 69 994.2
20260503031149 69 168 1.7 2.6 0.00 0.00 0.00 69 994.1
20260503030644 70 155 2.6 2.6 0.00 0.00 0.00 67 994.0
20260503030142 70 169 2.6 2.6 0.00 0.00 0.00 67 993.8
20260503025638 70 194 2.6 2.6 0.00 0.00 0.00 68 994.0
20260503025136 70 180 2.6 2.6 0.00 0.00 0.00 67 993.6
20260503024632 71 187 0.9 1.7 0.00 0.00 0.00 67 993.3
20260503024129 70 161 0.9 0.9 0.00 0.00 0.00 68 993.2
20260503023626 71 130 0.9 1.7 0.00 0.00 0.00 68 993.3
20260503023123 71 150 0.9 1.7 0.00 0.00 0.00 67 993.3
20260503022619 71 158 0.9 0.9 0.00 0.00 0.00 68 993.2
20260503022114 72 166 0.9 0.9 0.00 0.00 0.00 67 993.0
20260503021611 72 173 0.9 1.7 0.00 0.00 0.00 65 993.2
20260503021108 73 164 0.9 0.9 0.00 0.00 0.00 65 993.1
20260503020605 73 149 0.9 0.9 0.00 0.00 0.00 65 992.9
20260503015559 73 153 1.7 1.7 0.00 0.00 0.00 63 992.7
20260503015056 73 188 0.9 0.9 0.00 0.00 0.00 64 992.9
20260503014551 73 182 1.7 1.7 0.00 0.00 0.00 64 992.8
20260503014050 74 166 0.0 0.9 0.00 0.00 0.00 66 992.9
20260503013547 74 199 0.9 0.9 0.00 0.00 0.00 64 992.9
20260503013044 74 147 0.9 0.9 0.00 0.00 0.00 66 992.8
20260503012542 74 193 0.9 0.9 0.00 0.00 0.00 63 993.0
20260503012038 74 183 2.6 2.6 0.00 0.00 0.00 63 993.0
20260503011534 74 167 1.7 2.6 0.00 0.00 0.00 63 992.8
20260503011032 75 146 1.7 1.7 0.00 0.00 0.00 65 992.9
20260503010528 75 181 1.7 1.7 0.00 0.00 0.00 62 992.9
20260503010026 75 197 0.9 0.9 0.00 0.00 0.00 63 993.1
20260503005523 75 201 1.7 1.7 0.00 0.00 0.00 63 992.8
20260503005020 75 163 0.9 1.7 0.00 0.00 0.00 63 992.9
20260503004516 75 165 1.7 1.7 0.00 0.00 0.00 63 993.2
20260503004014 75 220 1.7 2.6 0.00 0.00 0.00 65 993.0
20260503003510 75 301 0.9 0.9 0.00 0.00 0.00 60 993.1
20260503003008 75 312 0.0 0.0 0.00 0.00 0.00 60 993.0
20260503002505 74 217 0.9 0.9 0.00 0.00 0.00 59 993.3
20260503002001 75 176 0.9 0.9 0.00 0.00 0.00 61 993.2
20260503001458 76 318 0.9 0.9 0.00 0.00 0.00 62 993.3
20260503000955 76 323 0.0 0.9 0.00 0.00 0.00 62 993.2
20260503000452 75 301 0.9 0.9 0.00 0.00 0.00 61 993.3
20260502235950 75 318 4.3 5.2 0.00 0.00 0.00 60 993.4
20260502235446 74 300 2.6 2.6 0.00 0.00 0.00 62 993.3
20260502234944 74 275 0.9 0.9 0.00 0.00 0.00 60 993.3
20260502234440 74 325 2.6 2.6 0.00 0.00 0.00 65 993.5
20260502233937 74 290 1.7 1.7 0.00 0.00 0.00 63 993.5
20260502233432 74 271 0.0 0.9 0.00 0.00 0.00 62 993.5
20260502232930 73 355 0.0 0.9 0.00 0.00 0.00 68 993.6
20260502232426 73 259 1.7 2.6 0.00 0.00 0.00 67 993.7
20260502231923 73 187 1.7 1.7 0.00 0.00 0.00 63 993.7
20260502231420 72 242 1.7 1.7 0.00 0.00 0.00 66 993.7
20260502230918 73 283 0.9 1.7 0.00 0.00 0.00 66 994.0
20260502230416 72 224 0.9 0.9 0.00 0.00 0.00 64 994.1
20260502225914 71 274 2.6 2.6 0.00 0.00 0.00 71 994.3
20260502225409 70 345 2.6 2.6 0.00 0.00 0.00 70 994.4
20260502224907 70 280 1.7 1.7 0.00 0.00 0.00 75 994.3
20260502224402 69 310 0.9 0.9 0.00 0.00 0.00 71 994.3